TimeCDT,TemperatureF,Dew PointF,Humidity,Sea Level PressureIn,VisibilityMPH,Wind Direction,Wind SpeedMPH,Gust SpeedMPH,PrecipitationIn,Events,Conditions,WindDirDegrees,DateUTC
12:15 AM,69.8,69.8,100,30.05,10.0,SSE,4.6,-,0.00,,Clear,150,2013-10-03 05:15:00
12:35 AM,69.8,69.8,100,30.04,10.0,SSE,5.8,-,0.00,,Clear,150,2013-10-03 05:35:00
12:55 AM,68.0,68.0,100,30.04,10.0,SSE,4.6,-,0.00,,Clear,150,2013-10-03 05:55:00
1:15 AM,68.0,68.0,100,30.04,8.0,South,3.5,-,0.00,,Clear,170,2013-10-03 06:15:00
1:35 AM,68.0,68.0,100,30.04,10.0,SSE,4.6,-,0.00,,Clear,150,2013-10-03 06:35:00
1:55 AM,68.0,68.0,100,30.03,9.0,SSE,4.6,-,0.00,,Clear,160,2013-10-03 06:55:00
2:15 AM,68.0,68.0,100,30.03,10.0,South,5.8,-,0.00,,Clear,170,2013-10-03 07:15:00
2:35 AM,66.2,66.2,100,30.03,10.0,SSE,5.8,-,0.00,,Clear,160,2013-10-03 07:35:00
2:55 AM,66.2,66.2,100,30.03,10.0,South,4.6,-,0.00,,Clear,170,2013-10-03 07:55:00
3:15 AM,66.2,66.2,100,30.03,10.0,SSE,4.6,-,0.00,,Clear,150,2013-10-03 08:15:00
3:35 AM,66.2,66.2,100,30.03,10.0,SSE,4.6,-,0.00,,Clear,150,2013-10-03 08:35:00
3:55 AM,66.2,66.2,100,30.03,10.0,Calm,Calm,-,0.00,,Clear,0,2013-10-03 08:55:00
4:15 AM,66.2,66.2,100,30.03,10.0,Calm,Calm,-,0.00,,Clear,0,2013-10-03 09:15:00
4:35 AM,66.2,66.2,100,30.03,10.0,Calm,Calm,-,0.00,,Clear,0,2013-10-03 09:35:00
4:55 AM,64.4,64.4,100,30.03,10.0,Calm,Calm,-,0.00,,Partly Cloudy,0,2013-10-03 09:55:00
5:15 AM,64.4,64.4,100,30.03,9.0,Calm,Calm,-,0.00,,Partly Cloudy,0,2013-10-03 10:15:00
5:35 AM,64.4,64.4,100,30.03,8.0,Calm,Calm,-,0.00,,Clear,0,2013-10-03 10:35:00
5:55 AM,64.4,64.4,100,30.04,10.0,Calm,Calm,-,0.00,,Clear,0,2013-10-03 10:55:00
6:15 AM,64.4,64.4,100,30.04,9.0,SE,3.5,-,0.00,,Clear,140,2013-10-03 11:15:00
6:35 AM,64.4,64.4,100,30.05,9.0,SSE,4.6,-,0.00,,Clear,150,2013-10-03 11:35:00
6:50 AM,64.4,64.4,100,30.06,10.0,Calm,Calm,-,N/A,,Scattered Clouds,0,2013-10-03 11:50:00
7:50 AM,66.2,66.2,100,30.06,10.0,South,5.8,-,N/A,,Scattered Clouds,170,2013-10-03 12:50:00
8:50 AM,69.8,69.8,100,30.07,9.0,South,5.8,-,N/A,,Mostly Cloudy,170,2013-10-03 13:50:00
9:50 AM,73.4,73.4,100,30.08,7.0,South,9.2,-,N/A,,Scattered Clouds,180,2013-10-03 14:50:00
10:50 AM,78.8,73.4,83,30.07,10.0,South,6.9,-,N/A,,Scattered Clouds,180,2013-10-03 15:50:00
11:50 AM,78.8,73.4,83,30.05,10.0,South,6.9,-,N/A,,Mostly Cloudy,170,2013-10-03 16:50:00
12:50 PM,82.4,71.6,70,30.03,10.0,South,9.2,-,N/A,,Mostly Cloudy,180,2013-10-03 17:50:00
2:50 PM,84.2,71.6,66,29.99,10.0,SE,8.1,-,N/A,,Mostly Cloudy,130,2013-10-03 19:50:00
3:50 PM,84.2,69.8,62,29.97,10.0,South,9.2,-,N/A,,Mostly Cloudy,170,2013-10-03 20:50:00
4:50 PM,84.2,69.8,62,29.97,10.0,South,9.2,-,N/A,,Mostly Cloudy,170,2013-10-03 21:50:00
5:50 PM,80.6,71.6,74,29.97,10.0,South,5.8,-,N/A,,Scattered Clouds,170,2013-10-03 22:50:00
6:50 PM,78.8,73.4,83,29.97,10.0,SSE,6.9,-,N/A,,Scattered Clouds,150,2013-10-03 23:50:00
7:50 PM,77.0,73.4,89,29.98,10.0,SSE,10.4,-,N/A,,Scattered Clouds,150,2013-10-04 00:50:00
8:55 PM,73.4,73.4,100,30.01,9.0,SSE,9.2,-,0.00,,Clear,150,2013-10-04 01:55:00
9:15 PM,73.4,73.4,100,30.01,9.0,SSE,9.2,-,0.00,,Clear,150,2013-10-04 02:15:00
9:35 PM,73.4,73.4,100,30.02,7.0,SSE,8.1,-,0.00,,Clear,150,2013-10-04 02:35:00
9:55 PM,73.4,73.4,100,30.02,9.0,SSE,9.2,-,0.00,,Clear,150,2013-10-04 02:55:00
10:15 PM,73.4,73.4,100,30.02,10.0,SSE,8.1,-,0.00,,Clear,150,2013-10-04 03:15:00
10:35 PM,71.6,71.6,100,30.02,8.0,SSE,6.9,-,0.00,,Clear,150,2013-10-04 03:35:00
11:35 PM,71.6,71.6,100,30.02,7.0,SSE,6.9,-,0.00,,Clear,150,2013-10-04 04:35:00
11:55 PM,71.6,71.6,100,30.02,10.0,SSE,5.8,-,0.00,,Clear,150,2013-10-04 04:55:00